Time,TemperatureF,DewpointF,PressureIn,WindDirection,WindDirectionDegrees,WindSpeedMPH,WindSpeedGustMPH,Humidity,HourlyPrecipIn,Conditions,Clouds,dailyrainin,SoftwareType,DateUTC
2013-07-03 00:01:00,58.1,57.0,30.11,North,351,0.0,3.0,96,0.00,,,0.34,weatherlink.com 1.10,2013-07-03 04:01:00,
2013-07-03 00:16:00,58.1,57.0,30.12,North,351,0.0,3.0,96,0.00,,,0.34,weatherlink.com 1.10,2013-07-03 04:16:00,
2013-07-03 00:31:00,57.9,57.0,30.11,North,351,0.0,0.0,96,0.00,,,0.34,weatherlink.com 1.10,2013-07-03 04:31:00,
2013-07-03 00:46:00,58.2,57.0,30.11,NW,318,2.0,3.0,96,0.00,,,0.34,weatherlink.com 1.10,2013-07-03 04:46:00,
2013-07-03 01:01:00,58.2,57.0,30.11,NW,318,0.0,3.0,95,0.00,,,0.34,weatherlink.com 1.10,2013-07-03 05:01:00,
2013-07-03 01:16:00,58.2,57.0,30.11,NW,318,0.0,0.0,96,0.00,,,0.34,weatherlink.com 1.10,2013-07-03 05:16:00,
2013-07-03 01:31:00,58.3,57.0,30.10,NW,318,0.0,0.0,96,0.00,,,0.34,weatherlink.com 1.10,2013-07-03 05:31:00,
2013-07-03 01:46:00,58.1,57.0,30.10,NW,318,0.0,0.0,96,0.00,,,0.34,weatherlink.com 1.10,2013-07-03 05:46:00,
2013-07-03 02:01:00,58.1,57.0,30.10,NW,318,0.0,2.0,96,0.00,,,0.34,weatherlink.com 1.10,2013-07-03 06:01:00,
2013-07-03 02:16:00,58.3,57.0,30.09,NW,318,0.0,1.0,96,0.00,,,0.34,weatherlink.com 1.10,2013-07-03 06:16:00,
2013-07-03 02:46:00,58.1,57.0,30.09,NW,318,0.0,0.0,96,0.00,,,0.34,weatherlink.com 1.10,2013-07-03 06:46:00,
2013-07-03 03:01:00,58.0,57.0,30.08,NW,318,0.0,0.0,97,0.00,,,0.34,weatherlink.com 1.10,2013-07-03 07:01:00,
2013-07-03 04:02:00,57.8,57.0,30.09,NW,318,0.0,0.0,97,0.00,,,0.00,weatherlink.com 1.10,2013-07-03 08:02:00,
2013-07-03 04:17:00,57.9,57.0,30.09,NW,318,0.0,0.0,98,0.00,,,0.00,weatherlink.com 1.10,2013-07-03 08:17:00,
2013-07-03 04:32:00,58.0,58.0,30.09,NW,318,0.0,0.0,98,0.00,,,0.00,weatherlink.com 1.10,2013-07-03 08:32:00,
2013-07-03 04:47:00,58.1,58.0,30.09,NW,318,0.0,0.0,98,0.00,,,0.00,weatherlink.com 1.10,2013-07-03 08:47:00,
2013-07-03 05:02:00,58.1,58.0,30.09,NW,318,0.0,0.0,98,0.00,,,0.00,weatherlink.com 1.10,2013-07-03 09:02:00,
2013-07-03 05:32:00,58.2,58.0,30.10,NW,318,0.0,0.0,98,0.00,,,0.00,weatherlink.com 1.10,2013-07-03 09:32:00,
2013-07-03 06:02:00,58.6,58.0,30.11,SW,236,0.0,1.0,98,0.00,,,0.00,weatherlink.com 1.10,2013-07-03 10:02:00,
2013-07-03 06:17:00,58.9,58.0,30.11,SW,236,0.0,0.0,98,0.00,,,0.00,weatherlink.com 1.10,2013-07-03 10:17:00,
2013-07-03 06:32:00,58.9,58.0,30.11,SW,236,0.0,1.0,98,0.00,,,0.00,weatherlink.com 1.10,2013-07-03 10:32:00,
2013-07-03 06:47:00,59.2,59.0,30.12,SSW,200,2.0,3.0,98,0.00,,,0.00,weatherlink.com 1.10,2013-07-03 10:47:00,
2013-07-03 07:02:00,59.3,59.0,30.12,SSW,200,0.0,4.0,98,0.00,,,0.00,weatherlink.com 1.10,2013-07-03 11:02:00,
2013-07-03 07:17:00,59.5,59.0,30.12,SSW,200,0.0,3.0,97,0.00,,,0.00,weatherlink.com 1.10,2013-07-03 11:17:00,
2013-07-03 07:32:00,60.4,60.0,30.11,SSW,200,0.0,1.0,97,0.00,,,0.00,weatherlink.com 1.10,2013-07-03 11:32:00,
2013-07-03 07:47:00,60.9,60.0,30.12,WSW,253,0.0,2.0,97,0.00,,,0.00,weatherlink.com 1.10,2013-07-03 11:47:00,
2013-07-03 08:02:00,61.4,60.0,30.12,SW,227,0.0,2.0,96,0.00,,,0.00,weatherlink.com 1.10,2013-07-03 12:02:00,
2013-07-03 08:17:00,61.6,60.0,30.12,SSW,196,0.0,4.0,95,0.00,,,0.00,weatherlink.com 1.10,2013-07-03 12:17:00,
2013-07-03 08:32:00,62.7,61.0,30.11,South,169,0.0,2.0,94,0.00,,,0.00,weatherlink.com 1.10,2013-07-03 12:32:00,
2013-07-03 08:47:00,63.4,61.0,30.11,North,355,1.0,3.0,91,0.00,,,0.00,weatherlink.com 1.10,2013-07-03 12:47:00,
2013-07-03 09:02:00,62.5,61.0,30.11,SSE,166,0.0,6.0,93,0.00,,,0.00,weatherlink.com 1.10,2013-07-03 13:02:00,
2013-07-03 09:17:00,62.9,61.0,30.11,NE,49,0.0,5.0,92,0.00,,,0.00,weatherlink.com 1.10,2013-07-03 13:17:00,
2013-07-03 09:32:00,63.6,61.0,30.11,ENE,57,2.0,7.0,91,0.00,,,0.00,weatherlink.com 1.10,2013-07-03 13:32:00,
2013-07-03 09:47:00,64.8,62.0,30.11,NE,36,0.0,5.0,91,0.00,,,0.00,weatherlink.com 1.10,2013-07-03 13:47:00,
2013-07-03 10:17:00,65.5,62.0,30.10,NNE,15,1.0,6.0,89,0.00,,,0.00,weatherlink.com 1.10,2013-07-03 14:17:00,
2013-07-03 10:33:00,66.7,64.0,30.11,NE,53,2.0,5.0,90,0.00,,,0.00,weatherlink.com 1.10,2013-07-03 14:33:00,
2013-07-03 10:48:00,68.7,65.0,30.11,SW,231,6.0,6.0,87,0.00,,,0.00,weatherlink.com 1.10,2013-07-03 14:48:00,
2013-07-03 11:03:00,67.5,63.0,30.11,NNE,21,0.0,4.0,86,0.00,,,0.00,weatherlink.com 1.10,2013-07-03 15:03:00,
2013-07-03 11:18:00,67.2,63.0,30.10,NE,36,3.0,6.0,87,0.00,,,0.00,weatherlink.com 1.10,2013-07-03 15:18:00,
2013-07-03 11:33:00,67.5,64.0,30.10,ENE,59,3.0,6.0,87,0.00,,,0.00,weatherlink.com 1.10,2013-07-03 15:33:00,
2013-07-03 12:03:00,68.7,64.0,30.09,NNE,22,1.0,7.0,85,0.00,,,0.00,weatherlink.com 1.10,2013-07-03 16:03:00,
2013-07-03 12:18:00,70.5,66.0,30.10,ESE,104,0.0,4.0,84,0.00,,,0.00,weatherlink.com 1.10,2013-07-03 16:18:00,
2013-07-03 12:33:00,69.7,65.0,30.09,ENE,57,4.0,5.0,84,0.00,,,0.00,weatherlink.com 1.10,2013-07-03 16:33:00,
2013-07-03 12:48:00,69.8,65.0,30.09,NW,311,0.0,7.0,84,0.00,,,0.00,weatherlink.com 1.10,2013-07-03 16:48:00,
2013-07-03 13:03:00,69.3,64.0,30.09,NNE,15,3.0,8.0,83,0.00,,,0.00,weatherlink.com 1.10,2013-07-03 17:03:00,
2013-07-03 13:33:00,70.3,65.0,30.09,NE,51,5.0,6.0,83,0.00,,,0.00,weatherlink.com 1.10,2013-07-03 17:33:00,
2013-07-03 13:48:00,71.2,65.0,30.08,NW,309,2.0,7.0,81,0.00,,,0.00,weatherlink.com 1.10,2013-07-03 17:48:00,
2013-07-03 14:03:00,70.8,65.0,30.08,NNE,28,3.0,5.0,83,0.00,,,0.00,weatherlink.com 1.10,2013-07-03 18:03:00,
2013-07-03 14:18:00,70.5,65.0,30.07,North,350,1.0,7.0,83,0.00,,,0.00,weatherlink.com 1.10,2013-07-03 18:18:00,
2013-07-03 14:48:00,70.4,65.0,30.07,NNE,25,1.0,7.0,84,0.00,,,0.00,weatherlink.com 1.10,2013-07-03 18:48:00,
2013-07-03 15:03:00,71.7,66.0,30.07,NE,51,0.0,6.0,83,0.00,,,0.00,weatherlink.com 1.10,2013-07-03 19:03:00,
2013-07-03 15:18:00,70.7,65.0,30.07,NNE,33,1.0,6.0,82,0.00,,,0.00,weatherlink.com 1.10,2013-07-03 19:18:00,
2013-07-03 15:33:00,70.3,65.0,30.06,ENE,57,3.0,6.0,83,0.00,,,0.00,weatherlink.com 1.10,2013-07-03 19:33:00,
2013-07-03 15:48:00,70.3,65.0,30.06,NNW,340,3.0,6.0,83,0.00,,,0.00,weatherlink.com 1.10,2013-07-03 19:48:00,
2013-07-03 16:03:00,69.5,65.0,30.05,NNW,339,2.0,7.0,85,0.00,,,0.00,weatherlink.com 1.10,2013-07-03 20:03:00,
2013-07-03 16:18:00,69.9,65.0,30.04,NNE,32,0.0,5.0,83,0.00,,,0.00,weatherlink.com 1.10,2013-07-03 20:18:00,
2013-07-03 16:33:00,70.1,65.0,30.04,SSE,165,3.0,5.0,84,0.00,,,0.00,weatherlink.com 1.10,2013-07-03 20:33:00,
2013-07-03 16:48:00,70.6,65.0,30.04,NE,38,0.0,4.0,83,0.00,,,0.00,weatherlink.com 1.10,2013-07-03 20:48:00,
2013-07-03 17:18:00,69.0,64.0,30.04,NE,47,0.0,4.0,85,0.00,,,0.00,weatherlink.com 1.10,2013-07-03 21:18:00,
2013-07-03 17:33:00,68.0,64.0,30.04,NE,38,1.0,4.0,86,0.00,,,0.00,weatherlink.com 1.10,2013-07-03 21:33:00,
2013-07-03 17:48:00,66.3,62.0,30.04,ENE,78,0.0,4.0,87,0.00,,,0.00,weatherlink.com 1.10,2013-07-03 21:48:00,
2013-07-03 18:03:00,65.4,62.0,30.03,NNE,28,1.0,3.0,89,0.00,,,0.00,weatherlink.com 1.10,2013-07-03 22:03:00,
2013-07-03 18:33:00,64.3,62.0,30.04,South,187,0.0,3.0,91,0.00,,,0.00,weatherlink.com 1.10,2013-07-03 22:33:00,
2013-07-03 18:48:00,64.0,62.0,30.04,NNE,30,3.0,3.0,92,0.00,,,0.00,weatherlink.com 1.10,2013-07-03 22:48:00,
2013-07-03 19:03:00,64.1,62.0,30.04,NNE,30,0.0,2.0,92,0.00,,,0.00,weatherlink.com 1.10,2013-07-03 23:03:00,
2013-07-03 19:18:00,63.6,61.0,30.04,NNE,30,0.0,0.0,92,0.00,,,0.00,weatherlink.com 1.10,2013-07-03 23:18:00,
2013-07-03 19:33:00,63.3,61.0,30.04,NNE,30,0.0,2.0,93,0.00,,,0.00,weatherlink.com 1.10,2013-07-03 23:33:00,
2013-07-03 19:48:00,62.2,60.0,30.04,NNE,30,0.0,2.0,93,0.00,,,0.00,weatherlink.com 1.10,2013-07-03 23:48:00,
2013-07-03 20:03:00,63.0,61.0,30.04,NNE,30,0.0,0.0,93,0.00,,,0.00,weatherlink.com 1.10,2013-07-04 00:03:00,
2013-07-03 20:18:00,61.9,60.0,30.05,NNE,30,0.0,0.0,93,0.00,,,0.00,weatherlink.com 1.10,2013-07-04 00:18:00,
2013-07-03 20:33:00,62.5,61.0,30.05,NNE,30,0.0,0.0,94,0.00,,,0.00,weatherlink.com 1.10,2013-07-04 00:33:00,
2013-07-03 20:48:00,62.0,60.0,30.05,NNE,30,0.0,1.0,94,0.00,,,0.00,weatherlink.com 1.10,2013-07-04 00:48:00,
2013-07-03 21:03:00,61.7,60.0,30.05,NNE,30,0.0,0.0,95,0.00,,,0.00,weatherlink.com 1.10,2013-07-04 01:03:00,
2013-07-03 21:18:00,61.3,60.0,30.05,NNE,30,0.0,1.0,95,0.00,,,0.00,weatherlink.com 1.10,2013-07-04 01:18:00,
2013-07-03 21:33:00,61.0,60.0,30.05,NNE,30,0.0,0.0,96,0.00,,,0.00,weatherlink.com 1.10,2013-07-04 01:33:00,
2013-07-03 21:48:00,60.6,60.0,30.05,NNE,30,1.0,2.0,96,0.00,,,0.00,weatherlink.com 1.10,2013-07-04 01:48:00,
2013-07-03 22:03:00,60.4,59.0,30.05,NNE,30,0.0,3.0,96,0.00,,,0.00,weatherlink.com 1.10,2013-07-04 02:03:00,
2013-07-03 22:18:00,60.7,60.0,30.05,NNE,30,0.0,0.0,97,0.00,,,0.00,weatherlink.com 1.10,2013-07-04 02:18:00,
2013-07-03 22:33:00,60.7,60.0,30.05,NNE,30,0.0,0.0,97,0.00,,,0.00,weatherlink.com 1.10,2013-07-04 02:33:00,
2013-07-03 22:48:00,61.0,60.0,30.05,NNE,30,0.0,0.0,97,0.00,,,0.00,weatherlink.com 1.10,2013-07-04 02:48:00,
2013-07-03 23:03:00,60.8,60.0,30.05,NNE,30,0.0,0.0,97,0.00,,,0.00,weatherlink.com 1.10,2013-07-04 03:03:00,
2013-07-03 23:18:00,59.5,59.0,30.05,NNE,30,0.0,0.0,97,0.00,,,0.00,weatherlink.com 1.10,2013-07-04 03:18:00,
2013-07-03 23:33:00,59.8,59.0,30.04,NNE,30,0.0,0.0,97,0.00,,,0.00,weatherlink.com 1.10,2013-07-04 03:33:00,
2013-07-03 23:48:00,59.7,59.0,30.04,NNE,30,0.0,0.0,98,0.00,,,0.00,weatherlink.com 1.10,2013-07-04 03:48:00,